This is the latest recevied weather packets stored in our database for station/object HS5BOG-13. If no packets are shown the sender has not sent any weather packets the latest 1 day(s).
| Time | Temp. | Humidity | Pressure | Rain* | Wind** | Luminosity | Snow |
|---|---|---|---|---|---|---|---|
| 1778054390 | 32.78° C | 61% | 987.9 hPa | - | - | - | - |
| 1778053179 | 32.78° C | 61% | 988 hPa | - | - | - | - |
| 1778051968 | 32.78° C | 63% | 988.6 hPa | - | - | - | - |
| 1778051362 | 32.22° C | 62% | 988.9 hPa | - | - | - | - |
| 1778050151 | 32.22° C | 64% | 989.3 hPa | - | - | - | - |
| 1778048940 | 31.67° C | 65% | 989.8 hPa | - | - | - | - |
| 1778048334 | 32.22° C | 63% | 990.1 hPa | - | - | - | - |
| 1778047729 | 31.67° C | 63% | 990.3 hPa | - | - | - | - |
| 1778047123 | 31.67° C | 66% | 990.7 hPa | - | - | - | - |
| 1778046518 | 31.67° C | 66% | 990.8 hPa | - | - | - | - |
| 1778045912 | 31.67° C | 67% | 991 hPa | - | - | - | - |
| 1778044701 | 31.11° C | 70% | 991.4 hPa | - | - | - | - |
| 1778042884 | 31.11° C | 72% | 991.8 hPa | - | - | - | - |
| 1778042279 | 31.11° C | 72% | 991.9 hPa | - | - | - | - |
| 1778041673 | 30.56° C | 76% | 991.8 hPa | - | - | - | - |
| 1778040462 | 30.56° C | 78% | 992.2 hPa | - | - | - | - |
| 1778039856 | 30.56° C | 80% | 992.3 hPa | - | - | - | - |
| 1778039251 | 30° C | 82% | 992.5 hPa | - | - | - | - |
| 1778038645 | 30° C | 88% | 992.6 hPa | - | - | - | - |
| 1778038040 | 29.44° C | 86% | 992.7 hPa | - | - | - | - |
| 1778034995 | 29.44° C | 91% | 992.9 hPa | - | - | - | - |
| 1778034389 | 29.44° C | 91% | 993 hPa | - | - | - | - |
| 1778033784 | 29.44° C | 94% | 992.9 hPa | - | - | - | - |
| 1778033178 | 29.44° C | 95% | 992.8 hPa | - | - | - | - |
| 1778031361 | 28.89° C | 96% | 992.9 hPa | - | - | - | - |
* Rain since midnight (hover to see other rain measurements)
** Current wind speed in m/s (hover to see current wind gust speed)